DECSS EDAV-EDLV

Flight info

Callsign DECSS
Flight time 1h 52m
Altitude 4500
Route LWB SUVAL HLZ SAS OSN HMM NOVEMBER
Aircraft C210/L-VGD/A

Departure

Time 2026-04-26 08:50
Airport Eberswalde-Finow Airfield (EDAV)

Arrival

Time 2026-04-26 10:43
Airport Weeze (Niederrhein) Airport (EDLV)
Time Latitude Longitude Altitude Speed Heading
2026-04-26 08:45 52.82746 13.71009 109 ft 0 kts
2026-04-26 08:46 52.82748 13.71010 109 ft 1 kts 14°
2026-04-26 08:46 52.82742 13.71062 115 ft 9 kts 106°
2026-04-26 08:47 52.82715 13.71187 115 ft 13 kts 111°
2026-04-26 08:47 52.82646 13.71257 115 ft 13 kts 197°
2026-04-26 08:47 52.82583 13.71239 114 ft 0 kts 188°
2026-04-26 08:49 52.82548 13.71195 114 ft 13 kts 242°
2026-04-26 08:49 52.82546 13.70981 115 ft 25 kts 278°
2026-04-26 08:49 52.82593 13.70569 115 ft 55 kts 278°
2026-04-26 08:49 52.82664 13.69771 198 ft 72 kts 281°
2026-04-26 08:50 52.82743 13.68941 426 ft 76 kts 287°
2026-04-26 08:50 52.82808 13.68370 640 ft 77 kts 288°
2026-04-26 08:50 52.82980 13.67383 779 ft 103 kts 291°
2026-04-26 08:50 52.83186 13.66242 1211 ft 97 kts 288°
2026-04-26 08:51 52.83505 13.64260 1745 ft 87 kts 289°
2026-04-26 08:51 52.83646 13.63341 2007 ft 81 kts 291°
2026-04-26 08:51 52.83784 13.62436 2250 ft 80 kts 289°
2026-04-26 08:52 52.83920 13.61543 2436 ft 80 kts 290°
2026-04-26 08:52 52.84054 13.60650 2608 ft 79 kts 290°
2026-04-26 08:52 52.84186 13.59766 2758 ft 81 kts 291°
2026-04-26 08:52 52.84334 13.58806 2902 ft 94 kts 290°
2026-04-26 08:53 52.84498 13.57712 3134 ft 101 kts 290°
2026-04-26 08:53 52.84675 13.56535 3283 ft 111 kts 289°
2026-04-26 08:53 52.84868 13.55234 3372 ft 119 kts 288°
2026-04-26 08:53 52.85064 13.53907 3543 ft 119 kts 289°
2026-04-26 08:54 52.85266 13.52556 3706 ft 123 kts 288°
2026-04-26 08:54 52.85475 13.51150 3858 ft 129 kts 288°
2026-04-26 08:54 52.85690 13.49692 4004 ft 131 kts 288°
2026-04-26 08:54 52.85908 13.48222 4147 ft 131 kts 288°
2026-04-26 08:55 52.86121 13.46781 4327 ft 128 kts 288°
2026-04-26 08:55 52.86329 13.45368 4504 ft 127 kts 289°
2026-04-26 08:55 52.86550 13.43892 4515 ft 136 kts 289°
2026-04-26 08:55 52.86782 13.42327 4525 ft 143 kts 289°
2026-04-26 08:56 52.87022 13.40698 4521 ft 147 kts 288°
2026-04-26 08:56 52.87268 13.39029 4520 ft 152 kts 288°
2026-04-26 08:56 52.87519 13.37322 4523 ft 153 kts 288°
2026-04-26 08:56 52.87772 13.35602 4521 ft 155 kts 288°
2026-04-26 08:57 52.88030 13.33850 4522 ft 158 kts 288°
2026-04-26 08:57 52.88290 13.32074 4516 ft 159 kts 288°
2026-04-26 08:57 52.88549 13.30304 4517 ft 157 kts 288°
2026-04-26 08:57 52.88804 13.28566 4510 ft 157 kts 288°
2026-04-26 08:58 52.89061 13.26807 4508 ft 157 kts 288°
2026-04-26 08:58 52.89317 13.25055 4510 ft 157 kts 288°
2026-04-26 08:58 52.89576 13.23283 4503 ft 158 kts 288°
2026-04-26 08:58 52.89833 13.21516 4511 ft 158 kts 288°
2026-04-26 08:59 52.90094 13.19733 4507 ft 160 kts 288°
2026-04-26 08:59 52.90355 13.17936 4508 ft 160 kts 288°
2026-04-26 08:59 52.90613 13.16163 4505 ft 160 kts 288°
2026-04-26 08:59 52.90874 13.14358 4503 ft 159 kts 288°
2026-04-26 09:00 52.91127 13.12613 4510 ft 157 kts 288°
2026-04-26 09:00 52.91382 13.10853 4512 ft 157 kts 288°
2026-04-26 09:00 52.91636 13.09093 4509 ft 157 kts 287°
2026-04-26 09:00 52.91890 13.07337 4507 ft 156 kts 288°
2026-04-26 09:01 52.92142 13.05590 4508 ft 156 kts 288°
2026-04-26 09:01 52.92394 13.03842 4505 ft 156 kts 288°
2026-04-26 09:01 52.92647 13.02087 4509 ft 156 kts 287°
2026-04-26 09:01 52.92900 13.00330 4511 ft 157 kts 288°
2026-04-26 09:02 52.93152 12.98569 4510 ft 157 kts 287°
2026-04-26 09:02 52.93404 12.96810 4511 ft 157 kts 288°
2026-04-26 09:02 52.93655 12.95064 4510 ft 158 kts 287°
2026-04-26 09:02 52.93908 12.93296 4508 ft 157 kts 287°
2026-04-26 09:03 52.94160 12.91532 4504 ft 157 kts 287°
2026-04-26 09:03 52.94412 12.89770 4504 ft 157 kts 287°
2026-04-26 09:03 52.94664 12.88005 4507 ft 157 kts 287°
2026-04-26 09:03 52.94917 12.86226 4507 ft 158 kts 287°
2026-04-26 09:04 52.95169 12.84456 4506 ft 157 kts 287°
2026-04-26 09:04 52.95420 12.82690 4506 ft 158 kts 287°
2026-04-26 09:04 52.95672 12.80916 4507 ft 158 kts 287°
2026-04-26 09:04 52.95925 12.79137 4506 ft 158 kts 287°
2026-04-26 09:05 52.96176 12.77363 4509 ft 158 kts 287°
2026-04-26 09:05 52.96428 12.75582 4501 ft 159 kts 287°
2026-04-26 09:05 52.96680 12.73797 4505 ft 160 kts 287°
2026-04-26 09:05 52.96933 12.72008 4501 ft 159 kts 287°
2026-04-26 09:06 52.97183 12.70231 4503 ft 157 kts 287°
2026-04-26 09:06 52.97432 12.68465 4501 ft 157 kts 287°
2026-04-26 09:06 52.97679 12.66711 4503 ft 157 kts 287°
2026-04-26 09:06 52.97848 12.64922 4494 ft 161 kts 268°
2026-04-26 09:07 52.97408 12.63180 4511 ft 166 kts 244°
2026-04-26 09:07 52.96838 12.61508 4512 ft 166 kts 246°
2026-04-26 09:07 52.96310 12.59797 4514 ft 166 kts 247°
2026-04-26 09:07 52.95803 12.58099 4515 ft 166 kts 248°
2026-04-26 09:08 52.95293 12.56384 4515 ft 166 kts 248°
2026-04-26 09:08 52.94780 12.54663 4513 ft 166 kts 248°
2026-04-26 09:08 52.94265 12.52937 4521 ft 168 kts 248°
2026-04-26 09:08 52.93743 12.51193 4517 ft 169 kts 248°
2026-04-26 09:09 52.93225 12.49461 4517 ft 167 kts 247°
2026-04-26 09:09 52.92710 12.47740 4520 ft 167 kts 247°
2026-04-26 09:09 52.92190 12.46003 4521 ft 169 kts 248°
2026-04-26 09:09 52.91666 12.44254 4520 ft 169 kts 247°
2026-04-26 09:10 52.91151 12.42537 4532 ft 170 kts 247°
2026-04-26 09:10 52.90626 12.40783 4532 ft 170 kts 247°
2026-04-26 09:10 52.90097 12.39026 4527 ft 170 kts 248°
2026-04-26 09:10 52.89570 12.37273 4535 ft 170 kts 247°
2026-04-26 09:11 52.89043 12.35519 4527 ft 170 kts 248°
2026-04-26 09:11 52.88515 12.33765 4523 ft 170 kts 247°
2026-04-26 09:11 52.87986 12.32011 4527 ft 170 kts 247°
2026-04-26 09:11 52.87460 12.30266 4526 ft 169 kts 247°
2026-04-26 09:12 52.86937 12.28531 4522 ft 168 kts 247°
2026-04-26 09:12 52.86417 12.26809 4520 ft 167 kts 247°
2026-04-26 09:12 52.85894 12.25080 4527 ft 169 kts 247°
2026-04-26 09:12 52.85367 12.23333 4523 ft 169 kts 247°
2026-04-26 09:13 52.84841 12.21599 4527 ft 168 kts 247°
2026-04-26 09:13 52.84319 12.19873 4525 ft 167 kts 247°
2026-04-26 09:13 52.83798 12.18155 4518 ft 166 kts 247°
2026-04-26 09:13 52.83286 12.16466 4520 ft 166 kts 246°
2026-04-26 09:14 52.82767 12.14755 4521 ft 167 kts 247°
2026-04-26 09:14 52.82241 12.13020 4525 ft 170 kts 246°
2026-04-26 09:14 52.81711 12.11279 4524 ft 169 kts 246°
2026-04-26 09:14 52.81183 12.09542 4521 ft 169 kts 247°
2026-04-26 09:15 52.80659 12.07821 4528 ft 167 kts 246°
2026-04-26 09:15 52.80131 12.06084 4528 ft 170 kts 246°
2026-04-26 09:15 52.79600 12.04342 4523 ft 169 kts 246°
2026-04-26 09:15 52.79072 12.02611 4527 ft 168 kts 246°
2026-04-26 09:16 52.78543 12.00876 4527 ft 169 kts 246°
2026-04-26 09:16 52.77993 11.99145 4526 ft 170 kts 242°
2026-04-26 09:16 52.77405 11.97450 4523 ft 169 kts 244°
2026-04-26 09:16 52.76839 11.95754 4521 ft 168 kts 244°
2026-04-26 09:17 52.76279 11.94099 4529 ft 168 kts 244°
2026-04-26 09:17 52.75704 11.92409 4530 ft 169 kts 244°
2026-04-26 09:17 52.75124 11.90708 4528 ft 170 kts 244°
2026-04-26 09:17 52.74548 11.89022 4524 ft 167 kts 244°
2026-04-26 09:18 52.73974 11.87340 4528 ft 169 kts 244°
2026-04-26 09:18 52.73397 11.85651 4527 ft 168 kts 244°
2026-04-26 09:18 52.72821 11.83967 4525 ft 168 kts 244°
2026-04-26 09:18 52.72250 11.82297 4526 ft 168 kts 244°
2026-04-26 09:19 52.71672 11.80609 4524 ft 169 kts 244°
2026-04-26 09:19 52.71091 11.78911 4520 ft 170 kts 244°
2026-04-26 09:19 52.70512 11.77224 4529 ft 170 kts 244°
2026-04-26 09:19 52.69929 11.75522 4531 ft 171 kts 244°
2026-04-26 09:20 52.69340 11.73810 4527 ft 171 kts 244°
2026-04-26 09:20 52.68766 11.72139 4527 ft 169 kts 244°
2026-04-26 09:20 52.68187 11.70458 4529 ft 168 kts 244°
2026-04-26 09:20 52.67609 11.68774 4527 ft 169 kts 244°
2026-04-26 09:21 52.67031 11.67100 4534 ft 168 kts 243°
2026-04-26 09:21 52.66455 11.65426 4529 ft 167 kts 243°
2026-04-26 09:21 52.65882 11.63762 4531 ft 167 kts 243°
2026-04-26 09:21 52.65308 11.62098 4528 ft 167 kts 243°
2026-04-26 09:22 52.64734 11.60435 4526 ft 167 kts 243°
2026-04-26 09:22 52.64158 11.58767 4527 ft 168 kts 243°
2026-04-26 09:22 52.63577 11.57089 4527 ft 169 kts 243°
2026-04-26 09:22 52.62998 11.55410 4530 ft 168 kts 243°
2026-04-26 09:23 52.62417 11.53736 4534 ft 169 kts 243°
2026-04-26 09:23 52.61836 11.52058 4536 ft 169 kts 243°
2026-04-26 09:23 52.61257 11.50385 4529 ft 168 kts 243°
2026-04-26 09:23 52.60680 11.48721 4526 ft 167 kts 243°
2026-04-26 09:24 52.60111 11.47084 4528 ft 167 kts 243°
2026-04-26 09:24 52.59533 11.45415 4535 ft 169 kts 243°
2026-04-26 09:24 52.58947 11.43731 4539 ft 170 kts 242°
2026-04-26 09:24 52.58360 11.42045 4539 ft 170 kts 242°
2026-04-26 09:25 52.57776 11.40361 4535 ft 170 kts 242°
2026-04-26 09:25 52.57191 11.38685 4530 ft 168 kts 242°
2026-04-26 09:25 52.56612 11.37024 4531 ft 167 kts 242°
2026-04-26 09:25 52.56034 11.35365 4539 ft 168 kts 243°
2026-04-26 09:26 52.55450 11.33690 4528 ft 168 kts 243°
2026-04-26 09:26 52.54870 11.32030 4531 ft 167 kts 243°
2026-04-26 09:26 52.54289 11.30369 4524 ft 167 kts 243°
2026-04-26 09:26 52.53711 11.28715 4528 ft 167 kts 242°
2026-04-26 09:27 52.53135 11.27069 4529 ft 166 kts 242°
2026-04-26 09:27 52.52558 11.25418 4532 ft 166 kts 242°
2026-04-26 09:27 52.51980 11.23769 4530 ft 167 kts 242°
2026-04-26 09:27 52.51399 11.22111 4538 ft 168 kts 242°
2026-04-26 09:28 52.50822 11.20466 4538 ft 168 kts 242°
2026-04-26 09:28 52.50237 11.18799 4541 ft 168 kts 242°
2026-04-26 09:28 52.49651 11.17130 4533 ft 168 kts 242°
2026-04-26 09:28 52.49066 11.15465 4537 ft 168 kts 242°
2026-04-26 09:29 52.48480 11.13800 4532 ft 169 kts 242°
2026-04-26 09:29 52.47895 11.12141 4533 ft 167 kts 242°
2026-04-26 09:29 52.47312 11.10482 4522 ft 168 kts 242°
2026-04-26 09:29 52.46726 11.08821 4533 ft 168 kts 242°
2026-04-26 09:30 52.46140 11.07158 4533 ft 168 kts 242°
2026-04-26 09:30 52.45560 11.05513 4544 ft 170 kts 242°
2026-04-26 09:30 52.44969 11.03842 4540 ft 169 kts 242°
2026-04-26 09:30 52.44383 11.02184 4541 ft 167 kts 242°
2026-04-26 09:31 52.43802 11.00538 4534 ft 167 kts 242°
2026-04-26 09:31 52.43218 10.98887 4524 ft 168 kts 242°
2026-04-26 09:31 52.42629 10.97224 4543 ft 169 kts 242°
2026-04-26 09:31 52.42041 10.95565 4550 ft 169 kts 242°
2026-04-26 09:32 52.41449 10.93893 4548 ft 169 kts 242°
2026-04-26 09:32 52.40860 10.92233 4549 ft 168 kts 242°
2026-04-26 09:32 52.40269 10.90569 4555 ft 170 kts 242°
2026-04-26 09:32 52.39676 10.88900 4552 ft 169 kts 242°
2026-04-26 09:33 52.39096 10.87268 4549 ft 168 kts 242°
2026-04-26 09:33 52.38511 10.85625 4550 ft 167 kts 242°
2026-04-26 09:33 52.37924 10.83973 4551 ft 168 kts 242°
2026-04-26 09:33 52.37338 10.82328 4539 ft 167 kts 242°
2026-04-26 09:34 52.36753 10.80688 4554 ft 167 kts 242°
2026-04-26 09:34 52.36269 10.78993 4549 ft 163 kts 258°
2026-04-26 09:34 52.36060 10.77164 4555 ft 164 kts 261°
2026-04-26 09:34 52.35839 10.75332 4557 ft 164 kts 261°
2026-04-26 09:35 52.35618 10.73504 4551 ft 164 kts 261°
2026-04-26 09:35 52.35398 10.71672 4560 ft 164 kts 261°
2026-04-26 09:35 52.35177 10.69836 4561 ft 164 kts 261°
2026-04-26 09:35 52.34955 10.67995 4554 ft 165 kts 261°
2026-04-26 09:36 52.34734 10.66158 4565 ft 165 kts 261°
2026-04-26 09:36 52.34511 10.64317 4557 ft 165 kts 261°
2026-04-26 09:36 52.34289 10.62481 4564 ft 165 kts 261°
2026-04-26 09:36 52.34067 10.60644 4548 ft 164 kts 261°
2026-04-26 09:37 52.33920 10.59428 4554 ft 164 kts 261°
2026-04-26 09:37 52.33697 10.57592 4563 ft 165 kts 261°
2026-04-26 09:37 52.33401 10.55159 4555 ft 165 kts 261°
2026-04-26 09:37 52.33178 10.53325 4562 ft 164 kts 261°
2026-04-26 09:38 52.32954 10.51490 4561 ft 165 kts 261°
2026-04-26 09:38 52.32802 10.50247 4565 ft 165 kts 261°
2026-04-26 09:38 52.32577 10.48407 4565 ft 165 kts 261°
2026-04-26 09:38 52.32355 10.46590 4566 ft 165 kts 261°
2026-04-26 09:39 52.32129 10.44746 4565 ft 165 kts 261°
2026-04-26 09:39 52.31903 10.42902 4563 ft 165 kts 260°
2026-04-26 09:39 52.31676 10.41055 4557 ft 165 kts 260°
2026-04-26 09:39 52.31448 10.39206 4562 ft 165 kts 260°
2026-04-26 09:40 52.31221 10.37365 4561 ft 165 kts 260°
2026-04-26 09:40 52.30993 10.35518 4554 ft 166 kts 260°
2026-04-26 09:40 52.30766 10.33674 4552 ft 166 kts 259°
2026-04-26 09:40 52.30537 10.31828 4553 ft 166 kts 259°
2026-04-26 09:41 52.30308 10.29979 4536 ft 166 kts 259°
2026-04-26 09:41 52.30078 10.28127 4540 ft 166 kts 259°
2026-04-26 09:41 52.29848 10.26275 4540 ft 166 kts 259°
2026-04-26 09:41 52.29617 10.24419 4536 ft 166 kts 259°
2026-04-26 09:42 52.29389 10.22591 4547 ft 167 kts 259°
2026-04-26 09:42 52.29158 10.20737 4547 ft 166 kts 259°
2026-04-26 09:42 52.28926 10.18878 4537 ft 168 kts 259°
2026-04-26 09:42 52.28693 10.17016 4544 ft 167 kts 259°
2026-04-26 09:43 52.28461 10.15158 4555 ft 168 kts 259°
2026-04-26 09:43 52.28225 10.13293 4558 ft 168 kts 259°
2026-04-26 09:43 52.27992 10.11423 4555 ft 168 kts 259°
2026-04-26 09:43 52.27758 10.09561 4559 ft 168 kts 259°
2026-04-26 09:44 52.27523 10.07692 4561 ft 169 kts 259°
2026-04-26 09:44 52.27286 10.05816 4562 ft 169 kts 259°
2026-04-26 09:44 52.27048 10.03942 4558 ft 167 kts 259°
2026-04-26 09:44 52.26814 10.02087 4555 ft 166 kts 259°
2026-04-26 09:45 52.26581 10.00242 4556 ft 166 kts 259°
2026-04-26 09:45 52.26346 9.98394 4557 ft 167 kts 259°
2026-04-26 09:45 52.26110 9.96533 4556 ft 168 kts 259°
2026-04-26 09:45 52.25873 9.94670 4545 ft 167 kts 259°
2026-04-26 09:46 52.25638 9.92821 4555 ft 166 kts 259°
2026-04-26 09:46 52.25405 9.90989 4555 ft 167 kts 259°
2026-04-26 09:46 52.25165 9.89112 4555 ft 167 kts 258°
2026-04-26 09:46 52.25039 9.87263 4551 ft 165 kts 269°
2026-04-26 09:47 52.25001 9.85385 4552 ft 166 kts 268°
2026-04-26 09:47 52.24954 9.83501 4554 ft 167 kts 268°
2026-04-26 09:47 52.24906 9.81598 4554 ft 168 kts 268°
2026-04-26 09:47 52.24856 9.79687 4558 ft 169 kts 268°
2026-04-26 09:48 52.24808 9.77766 4564 ft 170 kts 268°
2026-04-26 09:48 52.24757 9.75835 4566 ft 170 kts 268°
2026-04-26 09:48 52.24706 9.73902 4567 ft 170 kts 268°
2026-04-26 09:48 52.24656 9.71974 4567 ft 170 kts 268°
2026-04-26 09:49 52.24606 9.70046 4564 ft 169 kts 268°
2026-04-26 09:49 52.24555 9.68124 4565 ft 170 kts 268°
2026-04-26 09:49 52.24503 9.66194 4564 ft 171 kts 268°
2026-04-26 09:49 52.24451 9.64254 4564 ft 171 kts 268°
2026-04-26 09:50 52.24398 9.62319 4561 ft 170 kts 268°
2026-04-26 09:50 52.24346 9.60401 4558 ft 168 kts 268°
2026-04-26 09:50 52.24294 9.58499 4556 ft 167 kts 268°
2026-04-26 09:50 52.24243 9.56624 4554 ft 167 kts 268°
2026-04-26 09:51 52.24190 9.54733 4541 ft 167 kts 268°
2026-04-26 09:51 52.24138 9.52844 4549 ft 167 kts 268°
2026-04-26 09:51 52.24085 9.50944 4553 ft 168 kts 268°
2026-04-26 09:51 52.24031 9.49042 4549 ft 167 kts 268°
2026-04-26 09:52 52.23977 9.47149 4549 ft 166 kts 268°
2026-04-26 09:52 52.23870 9.43388 4549 ft 166 kts 268°
2026-04-26 09:52 52.23817 9.41525 4550 ft 166 kts 268°
2026-04-26 09:53 52.23762 9.39641 4550 ft 166 kts 268°
2026-04-26 09:53 52.23707 9.37754 4550 ft 167 kts 268°
2026-04-26 09:53 52.23652 9.35867 4557 ft 167 kts 268°
2026-04-26 09:53 52.23596 9.33967 4556 ft 168 kts 268°
2026-04-26 09:54 52.23540 9.32073 4558 ft 167 kts 268°
2026-04-26 09:54 52.23484 9.30186 4558 ft 166 kts 268°
2026-04-26 09:54 52.23427 9.28297 4552 ft 167 kts 268°
2026-04-26 09:54 52.23370 9.26410 4558 ft 167 kts 268°
2026-04-26 09:55 52.23313 9.24519 4557 ft 166 kts 267°
2026-04-26 09:55 52.23256 9.22632 4558 ft 166 kts 267°
2026-04-26 09:55 52.23198 9.20745 4559 ft 166 kts 267°
2026-04-26 09:55 52.23140 9.18863 4558 ft 166 kts 267°
2026-04-26 09:56 52.23082 9.16978 4560 ft 166 kts 267°
2026-04-26 09:56 52.23025 9.15119 4560 ft 167 kts 267°
2026-04-26 09:56 52.22966 9.13230 4555 ft 166 kts 267°
2026-04-26 09:56 52.22906 9.11342 4560 ft 167 kts 267°
2026-04-26 09:57 52.22847 9.09456 4559 ft 167 kts 267°
2026-04-26 09:57 52.22787 9.07568 4560 ft 166 kts 267°
2026-04-26 09:57 52.22727 9.05679 4560 ft 166 kts 267°
2026-04-26 09:57 52.22667 9.03798 4559 ft 166 kts 267°
2026-04-26 09:58 52.22606 9.01918 4553 ft 166 kts 267°
2026-04-26 09:58 52.22546 9.00038 4558 ft 166 kts 267°
2026-04-26 09:58 52.22485 8.98159 4522 ft 168 kts 267°
2026-04-26 09:58 52.22422 8.96227 4399 ft 173 kts 267°
2026-04-26 09:59 52.22358 8.94277 4276 ft 176 kts 267°
2026-04-26 09:59 52.22292 8.92279 4152 ft 177 kts 267°
2026-04-26 09:59 52.22225 8.90272 4027 ft 178 kts 267°
2026-04-26 09:59 52.22159 8.88253 3901 ft 178 kts 266°
2026-04-26 10:00 52.22091 8.86234 3770 ft 178 kts 266°
2026-04-26 10:00 52.22023 8.84211 3644 ft 179 kts 266°
2026-04-26 10:00 52.21954 8.82187 3513 ft 178 kts 266°
2026-04-26 10:00 52.21886 8.80167 3380 ft 178 kts 266°
2026-04-26 10:01 52.21817 8.78151 3251 ft 178 kts 266°
2026-04-26 10:01 52.21748 8.76137 3120 ft 178 kts 266°
2026-04-26 10:01 52.21678 8.74125 2989 ft 178 kts 266°
2026-04-26 10:01 52.21608 8.72113 2859 ft 177 kts 266°
2026-04-26 10:02 52.21538 8.70106 2727 ft 177 kts 266°
2026-04-26 10:02 52.21469 8.68132 2598 ft 176 kts 266°
2026-04-26 10:02 52.21400 8.66158 2560 ft 171 kts 266°
2026-04-26 10:02 52.21332 8.64244 2553 ft 167 kts 266°
2026-04-26 10:03 52.21265 8.62360 2547 ft 165 kts 266°
2026-04-26 10:03 52.21198 8.60494 2546 ft 164 kts 266°
2026-04-26 10:03 52.21132 8.58645 2546 ft 163 kts 266°
2026-04-26 10:03 52.21066 8.56800 2548 ft 163 kts 266°
2026-04-26 10:04 52.20998 8.54944 2546 ft 164 kts 266°
2026-04-26 10:04 52.20931 8.53088 2545 ft 164 kts 266°
2026-04-26 10:04 52.20863 8.51235 2548 ft 163 kts 266°
2026-04-26 10:04 52.20796 8.49388 2546 ft 163 kts 266°
2026-04-26 10:05 52.20728 8.47549 2545 ft 162 kts 266°
2026-04-26 10:05 52.20660 8.45704 2547 ft 163 kts 266°
2026-04-26 10:05 52.20592 8.43861 2549 ft 163 kts 266°
2026-04-26 10:05 52.20522 8.42005 2549 ft 164 kts 266°
2026-04-26 10:06 52.20453 8.40143 2556 ft 165 kts 266°
2026-04-26 10:06 52.20384 8.38301 2556 ft 165 kts 266°
2026-04-26 10:06 52.20313 8.36427 2556 ft 166 kts 266°
2026-04-26 10:06 52.20242 8.34559 2556 ft 165 kts 266°
2026-04-26 10:07 52.20171 8.32697 2557 ft 164 kts 266°
2026-04-26 10:07 52.20100 8.30834 2556 ft 164 kts 266°
2026-04-26 10:07 52.19958 8.29005 2552 ft 163 kts 252°
2026-04-26 10:07 52.19367 8.27444 2544 ft 162 kts 226°
2026-04-26 10:08 52.18581 8.26125 2548 ft 163 kts 225°
2026-04-26 10:08 52.17800 8.24795 2550 ft 162 kts 225°
2026-04-26 10:08 52.17032 8.23488 2551 ft 162 kts 225°
2026-04-26 10:08 52.16251 8.22162 2552 ft 162 kts 225°
2026-04-26 10:09 52.15469 8.20837 2554 ft 163 kts 225°
2026-04-26 10:09 52.14683 8.19503 2554 ft 163 kts 225°
2026-04-26 10:09 52.13893 8.18165 2557 ft 164 kts 225°
2026-04-26 10:09 52.13115 8.16845 2559 ft 163 kts 225°
2026-04-26 10:10 52.12317 8.15495 2556 ft 163 kts 225°
2026-04-26 10:10 52.11531 8.14166 2557 ft 163 kts 224°
2026-04-26 10:10 52.10745 8.12836 2554 ft 163 kts 224°
2026-04-26 10:10 52.09959 8.11508 2553 ft 163 kts 224°
2026-04-26 10:11 52.09173 8.10180 2556 ft 163 kts 225°
2026-04-26 10:11 52.08386 8.08852 2555 ft 163 kts 225°
2026-04-26 10:11 52.07607 8.07537 2556 ft 163 kts 225°
2026-04-26 10:11 52.06820 8.06210 2558 ft 163 kts 225°
2026-04-26 10:12 52.06033 8.04884 2558 ft 162 kts 225°
2026-04-26 10:12 52.05250 8.03563 2559 ft 162 kts 225°
2026-04-26 10:12 52.04467 8.02245 2557 ft 162 kts 225°
2026-04-26 10:12 52.03683 8.00927 2556 ft 162 kts 224°
2026-04-26 10:13 52.02897 7.99605 2548 ft 163 kts 225°
2026-04-26 10:13 52.02111 7.98283 2549 ft 163 kts 225°
2026-04-26 10:13 52.01326 7.96963 2550 ft 162 kts 224°
2026-04-26 10:13 52.00539 7.95643 2548 ft 163 kts 224°
2026-04-26 10:14 51.99749 7.94317 2548 ft 163 kts 224°
2026-04-26 10:14 51.98970 7.93010 2550 ft 163 kts 224°
2026-04-26 10:14 51.98178 7.91681 2552 ft 164 kts 224°
2026-04-26 10:14 51.97386 7.90355 2555 ft 164 kts 225°
2026-04-26 10:15 51.96591 7.89022 2553 ft 164 kts 224°
2026-04-26 10:15 51.95798 7.87696 2555 ft 163 kts 225°
2026-04-26 10:15 51.95010 7.86376 2557 ft 163 kts 224°
2026-04-26 10:15 51.94218 7.85054 2554 ft 163 kts 225°
2026-04-26 10:16 51.93438 7.83749 2551 ft 163 kts 225°
2026-04-26 10:16 51.92644 7.82424 2554 ft 164 kts 224°
2026-04-26 10:16 51.91844 7.81088 2555 ft 166 kts 224°
2026-04-26 10:16 51.91038 7.79744 2558 ft 166 kts 224°
2026-04-26 10:17 51.90232 7.78399 2556 ft 166 kts 224°
2026-04-26 10:17 51.89440 7.77080 2556 ft 165 kts 224°
2026-04-26 10:17 51.88636 7.75740 2554 ft 166 kts 224°
2026-04-26 10:17 51.87828 7.74395 2555 ft 166 kts 224°
2026-04-26 10:18 51.87023 7.73056 2556 ft 166 kts 224°
2026-04-26 10:18 51.86223 7.71724 2555 ft 164 kts 224°
2026-04-26 10:18 51.85617 7.70170 2541 ft 166 kts 251°
2026-04-26 10:18 51.85375 7.68351 2541 ft 166 kts 258°
2026-04-26 10:19 51.85147 7.66528 2545 ft 165 kts 258°
2026-04-26 10:19 51.84917 7.64712 2540 ft 165 kts 258°
2026-04-26 10:19 51.84688 7.62892 2543 ft 165 kts 258°
2026-04-26 10:19 51.84458 7.61072 2541 ft 165 kts 258°
2026-04-26 10:20 51.84227 7.59243 2543 ft 166 kts 258°
2026-04-26 10:20 51.84074 7.58033 2543 ft 166 kts 258°
2026-04-26 10:20 51.83763 7.55576 2541 ft 166 kts 258°
2026-04-26 10:20 51.83534 7.53767 2545 ft 165 kts 258°
2026-04-26 10:21 51.83303 7.51955 2541 ft 164 kts 258°
2026-04-26 10:21 51.83073 7.50144 2539 ft 165 kts 258°
2026-04-26 10:21 51.82841 7.48316 2551 ft 166 kts 258°
2026-04-26 10:21 51.82606 7.46477 2549 ft 167 kts 258°
2026-04-26 10:22 51.82370 7.44631 2547 ft 167 kts 258°
2026-04-26 10:22 51.82135 7.42789 2553 ft 167 kts 258°
2026-04-26 10:22 51.81900 7.40951 2548 ft 166 kts 258°
2026-04-26 10:22 51.81666 7.39129 2553 ft 165 kts 258°
2026-04-26 10:23 51.81433 7.37311 2554 ft 166 kts 258°
2026-04-26 10:23 51.81197 7.35477 2555 ft 168 kts 258°
2026-04-26 10:23 51.80957 7.33612 2555 ft 169 kts 258°
2026-04-26 10:23 51.80720 7.31773 2559 ft 170 kts 258°
2026-04-26 10:24 51.80480 7.29910 2557 ft 168 kts 258°
2026-04-26 10:24 51.80242 7.28075 2564 ft 167 kts 258°
2026-04-26 10:24 51.80003 7.26221 2557 ft 169 kts 258°
2026-04-26 10:24 51.79762 7.24359 2555 ft 170 kts 258°
2026-04-26 10:25 51.79520 7.22497 2554 ft 169 kts 258°
2026-04-26 10:25 51.79361 7.21261 2557 ft 170 kts 258°
2026-04-26 10:25 51.79116 7.19384 2559 ft 170 kts 258°
2026-04-26 10:25 51.78873 7.17519 2558 ft 170 kts 258°
2026-04-26 10:26 51.78630 7.15651 2568 ft 170 kts 258°
2026-04-26 10:26 51.78383 7.13750 2558 ft 173 kts 258°
2026-04-26 10:26 51.78133 7.11846 2558 ft 173 kts 258°
2026-04-26 10:26 51.77885 7.09955 2558 ft 171 kts 258°
2026-04-26 10:27 51.77643 7.08103 2559 ft 170 kts 258°
2026-04-26 10:27 51.77399 7.06245 2564 ft 169 kts 258°
2026-04-26 10:27 51.77149 7.04341 2462 ft 176 kts 258°
2026-04-26 10:27 51.76892 7.02382 2336 ft 180 kts 258°
2026-04-26 10:28 51.76627 7.00384 2221 ft 183 kts 258°
2026-04-26 10:28 51.76363 6.98377 2083 ft 181 kts 258°
2026-04-26 10:28 51.76103 6.96403 1949 ft 179 kts 258°
2026-04-26 10:28 51.75846 6.94456 1905 ft 175 kts 258°
2026-04-26 10:29 51.75593 6.92551 1900 ft 172 kts 258°
2026-04-26 10:29 51.75346 6.90665 1893 ft 172 kts 258°
2026-04-26 10:29 51.75092 6.88780 1902 ft 172 kts 258°
2026-04-26 10:29 51.74841 6.86893 1894 ft 171 kts 258°
2026-04-26 10:30 51.74593 6.85022 1895 ft 170 kts 258°
2026-04-26 10:30 51.74346 6.83172 1895 ft 167 kts 258°
2026-04-26 10:30 51.74101 6.81340 1901 ft 168 kts 258°
2026-04-26 10:30 51.73853 6.79489 1895 ft 170 kts 258°
2026-04-26 10:31 51.73604 6.77617 1901 ft 172 kts 258°
2026-04-26 10:31 51.73355 6.75762 1902 ft 170 kts 258°
2026-04-26 10:31 51.73104 6.73906 1901 ft 168 kts 258°
2026-04-26 10:31 51.72858 6.72066 1907 ft 168 kts 258°
2026-04-26 10:32 51.72609 6.70213 1906 ft 169 kts 258°
2026-04-26 10:32 51.72356 6.68342 1901 ft 170 kts 258°
2026-04-26 10:32 51.72108 6.66494 1903 ft 168 kts 258°
2026-04-26 10:32 51.71862 6.64664 1900 ft 166 kts 258°
2026-04-26 10:33 51.71614 6.62836 1904 ft 167 kts 258°
2026-04-26 10:33 51.71367 6.61025 1896 ft 167 kts 258°
2026-04-26 10:33 51.71122 6.59194 1897 ft 167 kts 258°
2026-04-26 10:33 51.70871 6.57348 1901 ft 171 kts 258°
2026-04-26 10:34 51.70614 6.55475 1899 ft 170 kts 258°
2026-04-26 10:34 51.70362 6.53625 1903 ft 168 kts 258°
2026-04-26 10:34 51.70112 6.51797 1904 ft 167 kts 258°
2026-04-26 10:34 51.69862 6.49960 1905 ft 168 kts 258°
2026-04-26 10:35 51.69609 6.48103 1908 ft 170 kts 258°
2026-04-26 10:35 51.69354 6.46235 1903 ft 170 kts 258°
2026-04-26 10:35 51.69100 6.44379 1898 ft 169 kts 258°
2026-04-26 10:35 51.68847 6.42534 1895 ft 167 kts 258°
2026-04-26 10:36 51.68599 6.40728 1898 ft 167 kts 258°
2026-04-26 10:36 51.68346 6.38887 1908 ft 169 kts 258°
2026-04-26 10:36 51.68091 6.37035 1901 ft 169 kts 258°
2026-04-26 10:36 51.67835 6.35182 1901 ft 169 kts 258°
2026-04-26 10:37 51.67581 6.33338 1899 ft 168 kts 258°
2026-04-26 10:37 51.67327 6.31503 1909 ft 168 kts 257°
2026-04-26 10:37 51.67073 6.29662 1908 ft 167 kts 257°
2026-04-26 10:37 51.66818 6.27824 1904 ft 169 kts 257°
2026-04-26 10:38 51.66563 6.25979 1896 ft 168 kts 257°
2026-04-26 10:38 51.66312 6.24170 1905 ft 169 kts 257°
2026-04-26 10:38 51.66054 6.22317 1910 ft 169 kts 257°
2026-04-26 10:38 51.65797 6.20466 1901 ft 168 kts 257°
2026-04-26 10:39 51.65376 6.18739 1885 ft 162 kts 245°
2026-04-26 10:39 51.64966 6.17004 1550 ft 172 kts 246°
2026-04-26 10:39 51.64369 6.15595 1818 ft 142 kts 226°
2026-04-26 10:39 51.63636 6.14570 1829 ft 135 kts 212°
2026-04-26 10:40 51.62880 6.13806 1766 ft 126 kts 208°
2026-04-26 10:40 51.62146 6.13098 1560 ft 125 kts 219°
2026-04-26 10:40 51.61729 6.11872 1420 ft 124 kts 261°
2026-04-26 10:40 51.61722 6.10483 1352 ft 123 kts 273°
2026-04-26 10:41 51.61716 6.09114 1303 ft 119 kts 271°
2026-04-26 10:41 51.61363 6.08127 1143 ft 111 kts 192°
2026-04-26 10:41 51.60674 6.08478 864 ft 102 kts 118°
2026-04-26 10:41 51.60408 6.09466 756 ft 93 kts 103°
2026-04-26 10:42 51.60316 6.10460 563 ft 91 kts 91°
2026-04-26 10:42 51.60302 6.11487 365 ft 93 kts 88°
2026-04-26 10:42 51.60287 6.12555 200 ft 95 kts 89°
2026-04-26 10:42 51.60266 6.13563 122 ft 83 kts 90°
2026-04-26 10:43 51.60247 6.14383 107 ft 65 kts 92°
2026-04-26 10:43 51.60228 6.15032 109 ft 49 kts 92°
2026-04-26 10:43 51.60219 6.15501 114 ft 33 kts 93°
2026-04-26 10:43 51.60213 6.15810 111 ft 25 kts 93°
2026-04-26 10:44 51.60154 6.15960 109 ft 13 kts 180°
2026-04-26 10:44 51.60063 6.15949 110 ft 14 kts 187°
2026-04-26 10:44 51.59972 6.16008 108 ft 14 kts 163°
2026-04-26 10:44 51.59938 6.16014 108 ft 0 kts 316°